This is the latest recevied weather packets stored in our database for station/object KB9PVH-8. If no packets are shown the sender has not sent any weather packets the latest 10 day(s).
| Time | Temp. | Humidity | Pressure | Rain* | Wind** | Luminosity | Snow |
|---|---|---|---|---|---|---|---|
| 1788029546 | 22.22° C | - | - | 0 mm | 6.71 m/s, ° | - | - |
| 1788027865 | 21.11° C | - | - | 0 mm | 9.39 m/s, ° | - | - |
| 1788027026 | 21.11° C | - | - | 0 mm | 4.92 m/s, ° | - | - |
| 1788026188 | 21.11° C | - | - | 0.51 mm | 7.15 m/s, ° | - | - |
| 1788025589 | 20.56° C | - | - | 0.51 mm | 4.92 m/s, ° | - | - |
| 1788025390 | 20.56° C | - | - | 0.51 mm | 4.92 m/s, ° | - | - |
| 1788025345 | 20.56° C | - | - | 0.51 mm | 4.92 m/s, ° | - | - |
| 1788024506 | 20.56° C | - | - | 1.02 mm | 4.92 m/s, ° | - | - |
| 1788022826 | 20.56° C | - | - | 0 mm | 4.92 m/s, ° | - | - |
| 1788021145 | 20.56° C | - | - | 0 mm | 8.05 m/s, ° | - | - |
| 1788019467 | 20° C | - | - | 0 mm | 7.6 m/s, ° | - | - |
| 1788018625 | 19.44° C | - | - | 0 mm | 4.02 m/s, ° | - | - |
| 1788016173 | 18.89° C | - | - | 0 mm | 5.36 m/s, ° | - | - |
| 1788016075 | 18.89° C | - | - | 0 mm | 5.36 m/s, ° | - | - |
| 1788014395 | 18.33° C | - | - | 0 mm | 3.58 m/s, ° | - | - |
| 1788012921 | 17.78° C | - | - | 0 mm | 3.13 m/s, ° | - | - |
| 1788012779 | 17.78° C | - | - | 0 mm | 3.13 m/s, ° | - | - |
| 1788012715 | 17.78° C | - | - | 0 mm | 3.13 m/s, ° | - | - |
| 1788011930 | 17.78° C | - | - | 0 mm | 3.58 m/s, ° | - | - |
| 1788011875 | 17.78° C | - | - | 0 mm | 3.58 m/s, ° | - | - |
| 1788011036 | 17.22° C | - | - | 0 mm | 2.68 m/s, ° | - | - |
| 1788010195 | 17.22° C | - | - | 0 mm | 1.34 m/s, ° | - | - |
| 1788009357 | 17.22° C | - | - | 0 mm | 1.79 m/s, ° | - | - |
| 1788008516 | 16.67° C | - | - | 0 mm | 2.68 m/s, ° | - | - |
| 1788007674 | 16.67° C | - | - | 0 mm | 1.79 m/s, ° | - | - |
* Rain latest hour (hover to see other rain measurements)
** Current wind speed in m/s (hover to see current wind gust speed)